Hourly Data Report for January 29, 2015

All times are specified in Local Standard Time (LST). Add 1 hour to adjust for Daylight Saving Time where and when it is observed.

Metadata including Station Name, Province, Latitude, Longitude, Elevation, Climate ID, WMO ID, TC ID
PILGER
SASKATCHEWAN
Latitude: 52°25'00.000" N Longitude: 105°09'00.000" W Elevation: 552.00 m
Climate ID: 4056121 WMO ID: 71655 TC ID: PUN
Hourly Data Report for January 29, 2015
Temp Definition
°C

Dew Point Temp Definition
°C

Rel Hum Definition
%

Wind Dir Definition
10's deg
Wind Spd Definition
km/h

Visibility Definition
km

Stn Press Definition
kPa

Hmdx Definition

Wind Chill Definition

Weather Definition

00:00 -13.5 -15.4 85 34 23 96.24 -23 LegendNANA
01:00 -14.2 -16.1 86 34 23 96.30 -24 LegendNANA
02:00 -14.8 -16.5 87 34 21 96.37 -24 LegendNANA
03:00 -15.3 -17.0 87 35 19 96.41 -24 LegendNANA
04:00 -15.9 -17.5 87 35 19 96.48 -25 LegendNANA
05:00 -16.2 -17.8 87 36 16 96.51 -25 LegendNANA
06:00 -16.2 -17.8 88 1 14 96.56 -24 LegendNANA
07:00 -16.3 -17.9 88 36 11 96.58 -23 LegendNANA
08:00 -16.4 -17.9 88 4 6 96.58 -21 LegendNANA
09:00 -16.9 -18.5 87 10 8 96.56 -23 LegendNANA
10:00 -16.9 -18.6 87 12 9 96.56 -23 LegendNANA
11:00 -16.6 -18.7 84 15 8 96.55 -22 LegendNANA
12:00 -16.4 -19.2 79 16 8 96.54 -22 LegendNANA
13:00 -16.7 -19.7 78 17 9 96.49 -23 LegendNANA
14:00 -16.5 -19.6 77 18 9 96.45 -23 LegendNANA
15:00 -16.3 -19.2 78 17 9 96.35 -22 LegendNANA
16:00 -16.0 -18.7 80 16 9 96.22 -22 LegendNANA
17:00 -16.1 -18.5 82 17 9 96.18 -22 LegendNANA
18:00 -15.9 -17.9 85 17 9 96.12 -22 LegendNANA
19:00 -15.7 -17.6 85 14 10 96.06 -22 LegendNANA
20:00 -15.5 -17.4 85 16 9 95.97 -21 LegendNANA
21:00 -15.1 -16.9 86 16 7 95.91 -20 LegendNANA
22:00 -14.7 -16.4 87 17 9 95.85 -20 LegendNANA
23:00 -13.9 -15.5 88 18 9 95.74 -20 LegendNANA

Notes on Data Quality.

Legend
  • E = Estimated
  • M = Missing
  • NA = Not Available
  • ‡ = Partner data that is not subject to review by the National Climate Archives